Time,TemperatureF,DewpointF,PressureIn,WindDirection,WindDirectionDegrees,WindSpeedMPH,WindSpeedGustMPH,Humidity,HourlyPrecipIn,Conditions,Clouds,dailyrainin,SolarRadiationWatts/m^2,SoftwareType,DateUTC
2013-06-17 00:01:00,65.8,60.5,29.80,SW,231,0.0,0.0,83,0.00,,---,0.00,0.00,VWS V14.00,2013-06-17 04:01:00,
2013-06-17 00:06:00,65.5,60.2,29.80,SW,231,0.0,1.0,83,0.00,,---,0.00,0.00,VWS V14.00,2013-06-17 04:06:00,
2013-06-17 00:11:00,65.2,60.2,29.80,SW,231,0.0,1.0,84,0.00,,---,0.00,0.00,VWS V14.00,2013-06-17 04:11:00,
2013-06-17 00:16:00,65.0,60.4,29.80,SW,231,0.0,0.0,85,0.00,,---,0.00,0.00,VWS V14.00,2013-06-17 04:16:00,
2013-06-17 00:21:00,64.8,60.2,29.80,SW,231,0.0,0.0,85,0.00,,---,0.00,0.00,VWS V14.00,2013-06-17 04:21:00,
2013-06-17 00:26:00,65.0,60.4,29.80,SW,231,1.0,1.0,85,0.00,,---,0.00,0.00,VWS V14.00,2013-06-17 04:26:00,
2013-06-17 00:31:00,65.3,60.7,29.80,SW,231,0.0,0.0,85,0.00,,---,0.00,0.00,VWS V14.00,2013-06-17 04:31:00,
2013-06-17 00:36:00,65.2,60.6,29.80,SW,231,0.0,0.0,85,0.00,,---,0.00,0.00,VWS V14.00,2013-06-17 04:36:00,
2013-06-17 00:41:00,65.0,60.4,29.80,SW,231,0.0,0.0,85,0.00,,---,0.00,0.00,VWS V14.00,2013-06-17 04:41:00,
2013-06-17 00:46:00,64.8,60.5,29.80,SW,231,0.0,0.0,86,0.00,,---,0.00,0.00,VWS V14.00,2013-06-17 04:46:00,
2013-06-17 00:51:00,64.5,60.2,29.80,SW,231,0.0,0.0,86,0.00,,---,0.00,0.00,VWS V14.00,2013-06-17 04:51:00,
2013-06-17 00:56:00,64.3,60.3,29.80,SW,231,0.0,0.0,87,0.00,,---,0.00,0.00,VWS V14.00,2013-06-17 04:56:00,
2013-06-17 01:01:00,64.3,60.3,29.80,SW,231,0.0,0.0,87,0.00,,---,0.00,0.00,VWS V14.00,2013-06-17 05:01:00,
2013-06-17 01:06:00,64.2,60.3,29.81,SW,231,0.0,1.0,87,0.00,,---,0.00,0.00,VWS V14.00,2013-06-17 05:06:00,
2013-06-17 01:11:00,64.3,60.7,29.80,SW,231,0.0,1.0,88,0.00,,---,0.00,0.00,VWS V14.00,2013-06-17 05:11:00,
2013-06-17 01:16:00,64.7,61.1,29.80,SW,231,0.0,2.0,88,0.00,,---,0.00,0.00,VWS V14.00,2013-06-17 05:16:00,
2013-06-17 01:21:00,64.8,60.8,29.81,SW,231,0.0,0.0,87,0.00,,---,0.00,0.00,VWS V14.00,2013-06-17 05:21:00,
2013-06-17 01:26:00,64.8,60.8,29.81,SW,231,0.0,1.0,87,0.00,,---,0.00,0.00,VWS V14.00,2013-06-17 05:26:00,
2013-06-17 01:31:00,64.7,60.8,29.80,SW,231,0.0,0.0,87,0.00,,---,0.00,0.00,VWS V14.00,2013-06-17 05:31:00,
2013-06-17 01:36:00,64.5,60.5,29.80,SW,231,0.0,0.0,87,0.00,,---,0.00,0.00,VWS V14.00,2013-06-17 05:36:00,
2013-06-17 01:41:00,64.0,60.1,29.80,SW,231,0.0,0.0,87,0.00,,---,0.00,0.00,VWS V14.00,2013-06-17 05:41:00,
2013-06-17 01:46:00,63.7,60.1,29.81,SW,231,0.0,0.0,88,0.00,,---,0.00,0.00,VWS V14.00,2013-06-17 05:46:00,
2013-06-17 01:51:00,63.4,60.1,29.81,SW,231,0.0,0.0,89,0.00,,---,0.00,0.00,VWS V14.00,2013-06-17 05:51:00,
2013-06-17 01:56:00,63.1,59.8,29.81,SW,231,0.0,0.0,89,0.00,,---,0.00,0.00,VWS V14.00,2013-06-17 05:56:00,
2013-06-17 02:01:00,62.7,59.7,29.81,SW,231,0.0,0.0,90,0.00,,---,0.00,0.00,VWS V14.00,2013-06-17 06:01:00,
2013-06-17 02:06:00,62.6,59.6,29.81,SW,231,0.0,0.0,90,0.00,,---,0.00,0.00,VWS V14.00,2013-06-17 06:06:00,
2013-06-17 02:11:00,62.6,59.9,29.81,SW,231,0.0,1.0,91,0.00,,---,0.00,0.00,VWS V14.00,2013-06-17 06:11:00,
2013-06-17 02:16:00,62.4,59.7,29.81,SW,231,0.0,0.0,91,0.00,,---,0.00,0.00,VWS V14.00,2013-06-17 06:16:00,
2013-06-17 02:21:00,62.3,59.6,29.81,SW,231,0.0,0.0,91,0.00,,---,0.00,0.00,VWS V14.00,2013-06-17 06:21:00,
2013-06-17 02:26:00,62.0,59.3,29.81,SW,231,0.0,1.0,91,0.00,,---,0.00,0.00,VWS V14.00,2013-06-17 06:26:00,
2013-06-17 02:31:00,61.8,59.5,29.81,SW,231,0.0,0.0,92,0.00,,---,0.00,0.00,VWS V14.00,2013-06-17 06:31:00,
2013-06-17 02:36:00,61.6,59.3,29.82,SW,231,0.0,0.0,92,0.00,,---,0.00,0.00,VWS V14.00,2013-06-17 06:36:00,
2013-06-17 02:41:00,61.5,59.5,29.82,SW,231,0.0,0.0,93,0.00,,---,0.00,0.00,VWS V14.00,2013-06-17 06:41:00,
2013-06-17 02:46:00,61.5,59.5,29.82,SW,231,0.0,0.0,93,0.00,,---,0.00,0.00,VWS V14.00,2013-06-17 06:46:00,
2013-06-17 02:51:00,61.5,59.5,29.82,SW,231,0.0,1.0,93,0.00,,---,0.00,0.00,VWS V14.00,2013-06-17 06:51:00,
2013-06-17 02:56:00,61.3,59.3,29.82,SW,231,0.0,0.0,93,0.00,,---,0.00,0.00,VWS V14.00,2013-06-17 06:56:00,
2013-06-17 03:01:00,61.3,59.6,29.82,SW,231,0.0,0.0,94,0.00,,---,0.00,0.00,VWS V14.00,2013-06-17 07:01:00,
2013-06-17 03:06:00,61.2,59.2,29.82,SW,231,0.0,0.0,93,0.00,,---,0.00,0.00,VWS V14.00,2013-06-17 07:06:00,
2013-06-17 03:11:00,61.0,59.3,29.82,SW,231,0.0,0.0,94,0.00,,---,0.00,0.00,VWS V14.00,2013-06-17 07:11:00,
2013-06-17 03:16:00,61.0,59.3,29.83,SW,231,0.0,0.0,94,0.00,,---,0.00,0.00,VWS V14.00,2013-06-17 07:16:00,
2013-06-17 03:21:00,61.0,59.3,29.82,SW,231,0.0,1.0,94,0.00,,---,0.00,0.00,VWS V14.00,2013-06-17 07:21:00,
2013-06-17 03:26:00,61.2,59.5,29.82,SW,231,2.0,2.0,94,0.00,,---,0.00,0.00,VWS V14.00,2013-06-17 07:26:00,
2013-06-17 03:31:00,61.3,59.9,29.82,SW,231,0.0,1.0,95,0.00,,---,0.00,0.00,VWS V14.00,2013-06-17 07:31:00,
2013-06-17 03:36:00,61.5,60.1,29.82,SW,231,0.0,0.0,95,0.00,,---,0.00,0.00,VWS V14.00,2013-06-17 07:36:00,
2013-06-17 03:41:00,61.5,60.1,29.82,SW,231,0.0,1.0,95,0.00,,---,0.00,0.00,VWS V14.00,2013-06-17 07:41:00,
2013-06-17 03:46:00,61.5,60.1,29.82,SW,231,0.0,1.0,95,0.00,,---,0.00,0.00,VWS V14.00,2013-06-17 07:46:00,
2013-06-17 03:51:00,61.3,59.9,29.82,SW,231,0.0,1.0,95,0.00,,---,0.00,0.00,VWS V14.00,2013-06-17 07:51:00,
2013-06-17 03:56:00,61.3,59.9,29.82,SW,231,0.0,0.0,95,0.00,,---,0.00,0.00,VWS V14.00,2013-06-17 07:56:00,
2013-06-17 04:01:00,61.3,59.9,29.82,SW,231,0.0,0.0,95,0.00,,---,0.00,0.00,VWS V14.00,2013-06-17 08:01:00,
2013-06-17 04:06:00,61.2,59.5,29.82,SW,231,0.0,0.0,94,0.00,,---,0.00,0.00,VWS V14.00,2013-06-17 08:06:00,
2013-06-17 04:11:00,61.0,59.6,29.82,SW,231,0.0,0.0,95,0.00,,---,0.00,0.00,VWS V14.00,2013-06-17 08:11:00,
2013-06-17 04:16:00,61.0,59.6,29.82,SW,231,0.0,0.0,95,0.00,,---,0.00,0.00,VWS V14.00,2013-06-17 08:16:00,
2013-06-17 04:21:00,61.0,59.6,29.82,SW,231,0.0,0.0,95,0.00,,---,0.00,0.00,VWS V14.00,2013-06-17 08:21:00,
2013-06-17 04:26:00,61.2,59.8,29.82,SW,231,0.0,0.0,95,0.00,,---,0.00,0.00,VWS V14.00,2013-06-17 08:26:00,
2013-06-17 04:31:00,61.2,59.8,29.82,SW,231,0.0,1.0,95,0.00,,---,0.00,0.00,VWS V14.00,2013-06-17 08:31:00,
2013-06-17 04:36:00,61.2,59.8,29.82,SW,231,0.0,1.0,95,0.00,,---,0.00,0.00,VWS V14.00,2013-06-17 08:36:00,
2013-06-17 04:41:00,61.0,59.6,29.82,SW,231,0.0,0.0,95,0.00,,---,0.00,0.00,VWS V14.00,2013-06-17 08:41:00,
2013-06-17 04:46:00,60.7,59.3,29.82,SW,231,0.0,0.0,95,0.00,,---,0.00,0.00,VWS V14.00,2013-06-17 08:46:00,
2013-06-17 04:51:00,60.9,59.5,29.83,SW,231,0.0,1.0,95,0.00,,---,0.00,0.00,VWS V14.00,2013-06-17 08:51:00,
2013-06-17 04:56:00,60.9,59.5,29.82,SW,231,0.0,0.0,95,0.00,,---,0.00,0.00,VWS V14.00,2013-06-17 08:56:00,
2013-06-17 05:01:00,61.0,59.6,29.83,SW,231,0.0,0.0,95,0.00,,---,0.00,0.00,VWS V14.00,2013-06-17 09:01:00,
2013-06-17 05:06:00,60.9,59.5,29.83,SW,231,0.0,0.0,95,0.00,,---,0.00,0.00,VWS V14.00,2013-06-17 09:06:00,
2013-06-17 05:11:00,60.7,59.3,29.83,SW,231,1.0,1.0,95,0.00,,---,0.00,0.00,VWS V14.00,2013-06-17 09:11:00,
2013-06-17 05:16:00,60.7,59.3,29.84,SW,231,0.0,0.0,95,0.00,,---,0.00,0.00,VWS V14.00,2013-06-17 09:16:00,
2013-06-17 05:21:00,60.4,59.0,29.84,SW,231,0.0,0.0,95,0.00,,---,0.00,5.00,VWS V14.00,2013-06-17 09:21:00,
2013-06-17 05:26:00,60.2,58.8,29.84,SW,231,0.0,1.0,95,0.00,,---,0.00,7.00,VWS V14.00,2013-06-17 09:26:00,
2013-06-17 05:31:00,60.2,58.8,29.84,SW,231,0.0,0.0,95,0.00,,---,0.00,9.00,VWS V14.00,2013-06-17 09:31:00,
2013-06-17 05:36:00,60.2,59.1,29.84,SW,231,0.0,0.0,96,0.00,,---,0.00,14.00,VWS V14.00,2013-06-17 09:36:00,
2013-06-17 05:41:00,60.1,58.7,29.84,SW,231,0.0,0.0,95,0.00,,---,0.00,18.00,VWS V14.00,2013-06-17 09:41:00,
2013-06-17 05:46:00,59.9,58.5,29.84,SW,231,0.0,1.0,95,0.00,,---,0.00,18.00,VWS V14.00,2013-06-17 09:46:00,
2013-06-17 05:51:00,59.9,58.5,29.84,SW,231,0.0,0.0,95,0.00,,---,0.00,19.00,VWS V14.00,2013-06-17 09:51:00,
2013-06-17 05:56:00,59.9,58.8,29.85,SW,231,0.0,0.0,96,0.00,,---,0.00,19.00,VWS V14.00,2013-06-17 09:56:00,
2013-06-17 06:01:00,60.1,59.0,29.85,SW,231,0.0,0.0,96,0.00,,---,0.00,21.00,VWS V14.00,2013-06-17 10:01:00,
2013-06-17 06:06:00,60.4,59.3,29.85,SW,231,0.0,1.0,96,0.00,,---,0.00,25.00,VWS V14.00,2013-06-17 10:06:00,
2013-06-17 06:10:00,60.4,59.3,29.85,SW,231,0.0,0.0,96,0.00,,---,0.00,26.00,VWS V14.00,2013-06-17 10:10:00,
2013-06-17 06:15:00,60.5,59.4,29.85,SW,231,0.0,0.0,96,0.00,,---,0.00,26.00,VWS V14.00,2013-06-17 10:15:00,
2013-06-17 06:20:00,60.7,59.6,29.85,SW,231,0.0,0.0,96,0.00,,---,0.00,28.00,VWS V14.00,2013-06-17 10:20:00,
2013-06-17 06:25:00,60.9,59.8,29.85,SW,231,0.0,0.0,96,0.00,,---,0.00,26.00,VWS V14.00,2013-06-17 10:25:00,
2013-06-17 06:30:00,60.9,60.0,29.85,SW,231,0.0,0.0,97,0.00,,---,0.00,25.00,VWS V14.00,2013-06-17 10:30:00,
2013-06-17 06:35:00,61.2,60.0,29.85,SW,231,0.0,1.0,96,0.00,,---,0.00,25.00,VWS V14.00,2013-06-17 10:35:00,
2013-06-17 06:40:00,61.3,60.4,29.85,SW,231,0.0,0.0,97,0.00,,---,0.00,37.00,VWS V14.00,2013-06-17 10:40:00,
2013-06-17 06:45:00,61.5,60.3,29.85,SW,231,0.0,0.0,96,0.00,,---,0.00,42.00,VWS V14.00,2013-06-17 10:45:00,
2013-06-17 06:50:00,61.6,60.5,29.85,SW,231,0.0,0.0,96,0.00,,---,0.00,37.00,VWS V14.00,2013-06-17 10:50:00,
2013-06-17 06:55:00,61.6,60.5,29.86,SW,231,0.0,0.0,96,0.00,,---,0.00,33.00,VWS V14.00,2013-06-17 10:55:00,
2013-06-17 07:00:00,62.1,61.2,29.86,SW,231,0.0,1.0,97,0.00,,---,0.00,30.00,VWS V14.00,2013-06-17 11:00:00,
2013-06-17 07:05:00,62.3,61.4,29.86,SW,227,0.0,0.0,97,0.00,,---,0.00,35.00,VWS V14.00,2013-06-17 11:05:00,
2013-06-17 07:10:00,62.7,61.8,29.85,SW,224,3.0,3.0,97,0.00,,---,0.00,32.00,VWS V14.00,2013-06-17 11:10:00,
2013-06-17 07:15:00,63.2,62.0,29.85,SW,225,0.0,1.0,96,0.00,,---,0.00,33.00,VWS V14.00,2013-06-17 11:15:00,
2013-06-17 07:20:00,63.5,62.3,29.85,SW,227,1.0,1.0,96,0.00,,---,0.00,56.00,VWS V14.00,2013-06-17 11:20:00,
2013-06-17 07:25:00,63.9,62.4,29.86,SW,227,0.0,1.0,95,0.00,,---,0.00,244.00,VWS V14.00,2013-06-17 11:25:00,
2013-06-17 07:30:00,64.3,62.5,29.86,SW,228,0.0,1.0,94,0.00,,---,0.00,264.00,VWS V14.00,2013-06-17 11:30:00,
2013-06-17 07:35:00,64.7,62.6,29.85,SW,225,0.0,1.0,93,0.00,,---,0.00,320.00,VWS V14.00,2013-06-17 11:35:00,
2013-06-17 07:40:00,65.2,63.1,29.85,West,269,0.0,1.0,93,0.00,,---,0.00,330.00,VWS V14.00,2013-06-17 11:40:00,
2013-06-17 07:45:00,65.6,62.9,29.85,West,269,0.0,2.0,91,0.00,,---,0.00,364.00,VWS V14.00,2013-06-17 11:45:00,
2013-06-17 07:50:00,66.3,63.0,29.85,SW,226,0.0,1.0,89,0.00,,---,0.00,294.00,VWS V14.00,2013-06-17 11:50:00,
2013-06-17 07:55:00,66.9,63.2,29.85,SW,230,1.0,1.0,88,0.00,,---,0.00,399.00,VWS V14.00,2013-06-17 11:55:00,
2013-06-17 08:00:00,67.4,63.4,29.85,SW,234,1.0,3.0,87,0.00,,---,0.00,413.00,VWS V14.00,2013-06-17 12:00:00,
2013-06-17 08:05:00,67.9,63.2,29.86,West,261,3.0,4.0,85,0.00,,---,0.00,425.00,VWS V14.00,2013-06-17 12:05:00,
2013-06-17 08:10:00,68.4,63.0,29.86,WNW,302,2.0,7.0,83,0.00,,---,0.00,441.00,VWS V14.00,2013-06-17 12:10:00,
2013-06-17 08:15:00,68.9,62.8,29.85,SSW,212,0.0,1.0,81,0.00,,---,0.00,462.00,VWS V14.00,2013-06-17 12:15:00,
2013-06-17 08:20:00,69.4,63.0,29.85,WSW,240,0.0,3.0,80,0.00,,---,0.00,473.00,VWS V14.00,2013-06-17 12:20:00,
2013-06-17 08:25:00,69.8,63.0,29.85,SW,234,2.0,3.0,79,0.00,,---,0.00,485.00,VWS V14.00,2013-06-17 12:25:00,
2013-06-17 08:30:00,70.3,63.5,29.85,WSW,256,1.0,4.0,79,0.00,,---,0.00,501.00,VWS V14.00,2013-06-17 12:30:00,
2013-06-17 08:35:00,70.8,63.2,29.85,West,269,0.0,4.0,77,0.00,,---,0.00,517.00,VWS V14.00,2013-06-17 12:35:00,
2013-06-17 08:40:00,71.3,63.3,29.85,SSW,198,0.0,2.0,76,0.00,,---,0.00,529.00,VWS V14.00,2013-06-17 12:40:00,
2013-06-17 08:45:00,71.8,63.5,29.85,SSW,200,1.0,1.0,75,0.00,,---,0.00,545.00,VWS V14.00,2013-06-17 12:45:00,
2013-06-17 08:50:00,72.3,63.9,29.85,West,267,0.0,1.0,75,0.00,,---,0.00,557.00,VWS V14.00,2013-06-17 12:50:00,
2013-06-17 08:55:00,72.5,63.4,29.84,WSW,237,5.0,6.0,73,0.00,,---,0.00,570.00,VWS V14.00,2013-06-17 12:55:00,
2013-06-17 09:00:00,72.7,62.8,29.84,WNW,299,4.0,5.0,71,0.00,,---,0.00,585.00,VWS V14.00,2013-06-17 13:00:00,
2013-06-17 09:05:00,73.2,63.6,29.84,WNW,295,3.0,4.0,72,0.00,,---,0.00,598.00,VWS V14.00,2013-06-17 13:05:00,
2013-06-17 09:10:00,73.3,63.3,29.84,SSE,164,3.0,6.0,71,0.00,,---,0.00,612.00,VWS V14.00,2013-06-17 13:10:00,
2013-06-17 09:15:00,73.5,62.7,29.85,WSW,248,4.0,5.0,69,0.00,,---,0.00,624.00,VWS V14.00,2013-06-17 13:15:00,
2013-06-17 09:20:00,73.9,63.5,29.84,NW,306,3.0,4.0,70,0.00,,---,0.00,640.00,VWS V14.00,2013-06-17 13:20:00,
2013-06-17 09:25:00,74.0,62.4,29.85,WSW,258,1.0,2.0,67,0.00,,---,0.00,649.00,VWS V14.00,2013-06-17 13:25:00,
2013-06-17 09:30:00,74.4,62.7,29.84,SW,234,5.0,6.0,67,0.00,,---,0.00,664.00,VWS V14.00,2013-06-17 13:30:00,
2013-06-17 09:35:00,74.6,62.9,29.84,SW,223,0.0,2.0,67,0.00,,---,0.00,675.00,VWS V14.00,2013-06-17 13:35:00,
2013-06-17 09:40:00,74.7,63.5,29.84,West,262,0.0,1.0,68,0.00,,---,0.00,686.00,VWS V14.00,2013-06-17 13:40:00,
2013-06-17 09:45:00,74.9,61.9,29.83,SW,223,6.0,10.0,64,0.00,,---,0.00,701.00,VWS V14.00,2013-06-17 13:45:00,
2013-06-17 09:50:00,74.9,62.3,29.84,West,263,1.0,4.0,65,0.00,,---,0.00,712.00,VWS V14.00,2013-06-17 13:50:00,
2013-06-17 09:55:00,75.1,63.8,29.84,WSW,251,3.0,4.0,68,0.00,,---,0.00,721.00,VWS V14.00,2013-06-17 13:55:00,
2013-06-17 10:00:00,75.3,61.8,29.83,SW,219,0.0,6.0,63,0.00,,---,0.00,738.00,VWS V14.00,2013-06-17 14:00:00,
2013-06-17 10:05:00,75.4,62.8,29.83,WSW,253,0.0,1.0,65,0.00,,---,0.00,744.00,VWS V14.00,2013-06-17 14:05:00,
2013-06-17 10:10:00,75.6,62.1,29.83,WSW,258,4.0,5.0,63,0.00,,---,0.00,752.00,VWS V14.00,2013-06-17 14:10:00,
2013-06-17 10:15:00,76.0,63.0,29.83,NW,312,0.0,1.0,64,0.00,,---,0.00,784.00,VWS V14.00,2013-06-17 14:15:00,
2013-06-17 10:20:00,76.3,64.6,29.84,WNW,284,4.0,5.0,67,0.00,,---,0.00,682.00,VWS V14.00,2013-06-17 14:20:00,
2013-06-17 10:25:00,76.5,63.9,29.83,WNW,285,3.0,4.0,65,0.00,,---,0.00,577.00,VWS V14.00,2013-06-17 14:25:00,
2013-06-17 10:30:00,76.5,62.5,29.83,SSW,199,1.0,2.0,62,0.00,,---,0.00,489.00,VWS V14.00,2013-06-17 14:30:00,
2013-06-17 10:35:00,76.7,63.2,29.83,SSW,196,2.0,5.0,63,0.00,,---,0.00,334.00,VWS V14.00,2013-06-17 14:35:00,
2013-06-17 10:40:00,77.2,63.6,29.83,South,188,0.0,3.0,63,0.00,,---,0.00,227.00,VWS V14.00,2013-06-17 14:40:00,
2013-06-17 10:45:00,77.6,63.1,29.83,WSW,238,6.0,6.0,61,0.00,,---,0.00,309.00,VWS V14.00,2013-06-17 14:45:00,
2013-06-17 10:50:00,77.6,62.2,29.83,WNW,285,2.0,2.0,59,0.00,,---,0.00,606.00,VWS V14.00,2013-06-17 14:50:00,
2013-06-17 10:55:00,77.7,60.8,29.83,SSW,213,3.0,5.0,56,0.00,,---,0.00,814.00,VWS V14.00,2013-06-17 14:55:00,
2013-06-17 11:00:00,78.1,62.1,29.82,WNW,292,5.0,5.0,58,0.00,,---,0.00,847.00,VWS V14.00,2013-06-17 15:00:00,
2013-06-17 11:05:00,78.5,62.5,29.82,NW,323,0.0,3.0,58,0.00,,---,0.00,874.00,VWS V14.00,2013-06-17 15:05:00,
2013-06-17 11:10:00,78.5,62.5,29.82,WNW,294,3.0,3.0,58,0.00,,---,0.00,937.00,VWS V14.00,2013-06-17 15:10:00,
2013-06-17 11:15:00,78.8,63.3,29.82,NW,325,1.0,2.0,59,0.00,,---,0.00,909.00,VWS V14.00,2013-06-17 15:15:00,
2013-06-17 11:20:00,78.8,61.8,29.82,SSW,193,0.0,5.0,56,0.00,,---,0.00,956.00,VWS V14.00,2013-06-17 15:20:00,
2013-06-17 11:25:00,78.5,62.5,29.82,WNW,292,4.0,5.0,58,0.00,,---,0.00,998.00,VWS V14.00,2013-06-17 15:25:00,
2013-06-17 11:30:00,78.1,60.6,29.82,WNW,284,1.0,1.0,55,0.00,,---,0.00,253.00,VWS V14.00,2013-06-17 15:30:00,
2013-06-17 11:35:00,78.3,61.8,29.82,South,183,6.0,6.0,57,0.00,,---,0.00,967.00,VWS V14.00,2013-06-17 15:35:00,
2013-06-17 11:40:00,78.8,60.8,29.82,West,280,5.0,6.0,54,0.00,,---,0.00,939.00,VWS V14.00,2013-06-17 15:40:00,
2013-06-17 11:45:00,79.6,62.0,29.82,NW,311,0.0,1.0,55,0.00,,---,0.00,960.00,VWS V14.00,2013-06-17 15:45:00,
2013-06-17 11:50:00,79.6,60.4,29.82,West,275,0.0,0.0,52,0.00,,---,0.00,214.00,VWS V14.00,2013-06-17 15:50:00,
2013-06-17 11:55:00,79.9,59.6,29.82,SE,143,0.0,0.0,50,0.00,,---,0.00,930.00,VWS V14.00,2013-06-17 15:55:00,
2013-06-17 12:00:00,80.1,60.4,29.82,SSW,210,4.0,5.0,51,0.00,,---,0.00,940.00,VWS V14.00,2013-06-17 16:00:00,
2013-06-17 12:05:00,80.3,60.0,29.82,West,275,2.0,5.0,50,0.00,,---,0.00,935.00,VWS V14.00,2013-06-17 16:05:00,
2013-06-17 12:10:00,80.7,60.3,29.82,SSW,204,3.0,3.0,50,0.00,,---,0.00,954.00,VWS V14.00,2013-06-17 16:10:00,
2013-06-17 12:15:00,80.9,58.8,29.82,West,273,11.0,11.0,47,0.00,,---,0.00,958.00,VWS V14.00,2013-06-17 16:15:00,
2013-06-17 12:20:00,80.7,59.8,29.82,WNW,282,1.0,5.0,49,0.00,,---,0.00,974.00,VWS V14.00,2013-06-17 16:20:00,
2013-06-17 12:25:00,81.1,58.4,29.82,SSE,157,0.0,4.0,46,0.00,,---,0.00,1000.00,VWS V14.00,2013-06-17 16:25:00,
2013-06-17 12:30:00,81.6,60.0,29.82,WNW,297,4.0,4.0,48,0.00,,---,0.00,951.00,VWS V14.00,2013-06-17 16:30:00,
2013-06-17 12:35:00,81.8,59.0,29.82,NW,308,5.0,5.0,46,0.00,,---,0.00,958.00,VWS V14.00,2013-06-17 16:35:00,
2013-06-17 12:40:00,81.4,57.4,29.82,WNW,288,5.0,6.0,44,0.00,,---,0.00,974.00,VWS V14.00,2013-06-17 16:40:00,
2013-06-17 12:45:00,81.4,59.3,29.82,SW,229,5.0,6.0,47,0.00,,---,0.00,990.00,VWS V14.00,2013-06-17 16:45:00,
2013-06-17 12:50:00,81.8,60.8,29.81,WNW,294,1.0,5.0,49,0.00,,---,0.00,976.00,VWS V14.00,2013-06-17 16:50:00,
2013-06-17 12:55:00,82.4,60.2,29.82,South,180,3.0,3.0,47,0.00,,---,0.00,984.00,VWS V14.00,2013-06-17 16:55:00,
2013-06-17 13:00:00,82.6,60.3,29.81,WNW,300,5.0,13.0,47,0.00,,---,0.00,974.00,VWS V14.00,2013-06-17 17:00:00,
2013-06-17 13:05:00,82.4,59.6,29.81,WNW,292,2.0,6.0,46,0.00,,---,0.00,1013.00,VWS V14.00,2013-06-17 17:05:00,
2013-06-17 13:10:00,82.4,60.8,29.81,South,178,0.0,3.0,48,0.00,,---,0.00,1032.00,VWS V14.00,2013-06-17 17:10:00,
2013-06-17 13:15:00,82.6,59.1,29.81,SW,217,2.0,2.0,45,0.00,,---,0.00,566.00,VWS V14.00,2013-06-17 17:15:00,
2013-06-17 13:20:00,81.8,57.1,29.81,West,277,7.0,7.0,43,0.00,,---,0.00,306.00,VWS V14.00,2013-06-17 17:20:00,
2013-06-17 13:25:00,80.7,59.2,29.81,WSW,245,3.0,3.0,48,0.00,,---,0.00,223.00,VWS V14.00,2013-06-17 17:25:00,
2013-06-17 13:30:00,79.9,59.6,29.81,SSW,213,2.0,2.0,50,0.00,,---,0.00,218.00,VWS V14.00,2013-06-17 17:30:00,
2013-06-17 13:35:00,80.5,63.4,29.81,SW,227,0.0,1.0,56,0.00,,---,0.00,972.00,VWS V14.00,2013-06-17 17:35:00,
2013-06-17 13:40:00,81.4,61.5,29.80,South,182,5.0,9.0,51,0.00,,---,0.00,956.00,VWS V14.00,2013-06-17 17:40:00,
2013-06-17 13:45:00,81.8,61.4,29.80,WSW,240,5.0,6.0,50,0.00,,---,0.00,962.00,VWS V14.00,2013-06-17 17:45:00,
2013-06-17 13:50:00,82.4,61.3,29.80,WSW,254,4.0,5.0,49,0.00,,---,0.00,974.00,VWS V14.00,2013-06-17 17:50:00,
2013-06-17 13:55:00,82.6,61.5,29.80,West,266,0.0,3.0,49,0.00,,---,0.00,895.00,VWS V14.00,2013-06-17 17:55:00,
2013-06-17 14:00:00,82.6,60.3,29.80,SW,229,1.0,1.0,47,0.00,,---,0.00,158.00,VWS V14.00,2013-06-17 18:00:00,
2013-06-17 14:05:00,81.8,59.0,29.80,WSW,257,0.0,2.0,46,0.00,,---,0.00,255.00,VWS V14.00,2013-06-17 18:05:00,
2013-06-17 14:10:00,81.6,62.3,29.80,SSW,211,0.0,2.0,52,0.00,,---,0.00,1049.00,VWS V14.00,2013-06-17 18:10:00,
2013-06-17 14:15:00,82.2,63.4,29.80,SW,234,4.0,5.0,53,0.00,,---,0.00,1007.00,VWS V14.00,2013-06-17 18:15:00,
2013-06-17 14:20:00,82.4,60.2,29.80,SE,144,4.0,7.0,47,0.00,,---,0.00,914.00,VWS V14.00,2013-06-17 18:20:00,
2013-06-17 14:25:00,82.8,59.9,29.80,WNW,292,4.0,12.0,46,0.00,,---,0.00,896.00,VWS V14.00,2013-06-17 18:25:00,
2013-06-17 14:30:00,83.0,61.3,29.79,SSE,165,0.0,3.0,48,0.00,,---,0.00,898.00,VWS V14.00,2013-06-17 18:30:00,
2013-06-17 14:35:00,83.0,60.1,29.80,SW,215,3.0,7.0,46,0.00,,---,0.00,930.00,VWS V14.00,2013-06-17 18:35:00,
2013-06-17 14:40:00,83.2,60.3,29.79,WNW,290,5.0,7.0,46,0.00,,---,0.00,977.00,VWS V14.00,2013-06-17 18:40:00,
2013-06-17 14:45:00,82.6,61.5,29.79,SE,144,8.0,11.0,49,0.00,,---,0.00,868.00,VWS V14.00,2013-06-17 18:45:00,
2013-06-17 14:50:00,81.8,60.2,29.80,WSW,252,3.0,6.0,48,0.00,,---,0.00,577.00,VWS V14.00,2013-06-17 18:50:00,
2013-06-17 14:55:00,81.2,60.8,29.79,WSW,242,6.0,7.0,50,0.00,,---,0.00,896.00,VWS V14.00,2013-06-17 18:55:00,
2013-06-17 15:00:00,80.9,62.2,29.80,SSE,153,9.0,9.0,53,0.00,,---,0.00,895.00,VWS V14.00,2013-06-17 19:00:00,
2013-06-17 15:05:00,80.9,60.5,29.79,SSE,168,6.0,17.0,50,0.00,,---,0.00,865.00,VWS V14.00,2013-06-17 19:05:00,
2013-06-17 15:10:00,80.7,62.0,29.79,SSW,212,3.0,6.0,53,0.00,,---,0.00,842.00,VWS V14.00,2013-06-17 19:10:00,
2013-06-17 15:15:00,80.5,61.3,29.79,SW,221,5.0,9.0,52,0.00,,---,0.00,828.00,VWS V14.00,2013-06-17 19:15:00,
2013-06-17 15:20:00,80.3,60.5,29.79,SSW,199,9.0,9.0,51,0.00,,---,0.00,802.00,VWS V14.00,2013-06-17 19:20:00,
2013-06-17 15:25:00,80.5,60.7,29.78,South,184,6.0,11.0,51,0.00,,---,0.00,793.00,VWS V14.00,2013-06-17 19:25:00,
2013-06-17 15:30:00,80.5,62.3,29.78,SSE,148,9.0,9.0,54,0.00,,---,0.00,780.00,VWS V14.00,2013-06-17 19:30:00,
2013-06-17 15:35:00,80.5,61.8,29.78,South,182,3.0,3.0,53,0.00,,---,0.00,735.00,VWS V14.00,2013-06-17 19:35:00,
2013-06-17 15:40:00,80.7,59.8,29.78,South,171,3.0,9.0,49,0.00,,---,0.00,765.00,VWS V14.00,2013-06-17 19:40:00,
2013-06-17 15:45:00,81.1,61.8,29.78,SSE,159,4.0,6.0,52,0.00,,---,0.00,752.00,VWS V14.00,2013-06-17 19:45:00,
2013-06-17 15:50:00,81.1,60.7,29.78,SSE,158,7.0,7.0,50,0.00,,---,0.00,742.00,VWS V14.00,2013-06-17 19:50:00,
2013-06-17 15:55:00,80.9,61.6,29.78,West,272,7.0,14.0,52,0.00,,---,0.00,729.00,VWS V14.00,2013-06-17 19:55:00,
2013-06-17 16:00:00,80.9,62.7,29.79,WSW,246,6.0,10.0,54,0.00,,---,0.00,715.00,VWS V14.00,2013-06-17 20:00:00,
2013-06-17 16:05:00,81.1,61.8,29.78,SSW,208,5.0,9.0,52,0.00,,---,0.00,705.00,VWS V14.00,2013-06-17 20:05:00,
2013-06-17 16:10:00,81.2,61.4,29.78,West,261,1.0,4.0,51,0.00,,---,0.00,691.00,VWS V14.00,2013-06-17 20:10:00,
2013-06-17 16:15:00,81.4,60.4,29.78,NNW,333,2.0,5.0,49,0.00,,---,0.00,682.00,VWS V14.00,2013-06-17 20:15:00,
2013-06-17 16:20:00,81.4,62.1,29.78,West,275,4.0,4.0,52,0.00,,---,0.00,666.00,VWS V14.00,2013-06-17 20:20:00,
2013-06-17 16:25:00,81.8,59.6,29.79,South,182,0.0,3.0,47,0.00,,---,0.00,649.00,VWS V14.00,2013-06-17 20:25:00,
2013-06-17 16:30:00,82.0,61.5,29.79,WSW,250,3.0,4.0,50,0.00,,---,0.00,636.00,VWS V14.00,2013-06-17 20:30:00,
2013-06-17 16:35:00,82.2,60.6,29.79,South,175,0.0,2.0,48,0.00,,---,0.00,622.00,VWS V14.00,2013-06-17 20:35:00,
2013-06-17 16:40:00,82.4,60.8,29.78,West,267,2.0,2.0,48,0.00,,---,0.00,601.00,VWS V14.00,2013-06-17 20:40:00,
2013-06-17 16:45:00,82.6,60.9,29.78,SW,224,3.0,3.0,48,0.00,,---,0.00,589.00,VWS V14.00,2013-06-17 20:45:00,
2013-06-17 16:50:00,82.8,62.3,29.78,SW,236,2.0,4.0,50,0.00,,---,0.00,582.00,VWS V14.00,2013-06-17 20:50:00,
2013-06-17 16:55:00,82.6,61.5,29.77,SE,136,2.0,7.0,49,0.00,,---,0.00,568.00,VWS V14.00,2013-06-17 20:55:00,
2013-06-17 17:00:00,82.8,62.8,29.78,SW,223,6.0,11.0,51,0.00,,---,0.00,554.00,VWS V14.00,2013-06-17 21:00:00,
2013-06-17 17:05:00,82.6,60.9,29.77,SW,232,0.0,0.0,48,0.00,,---,0.00,536.00,VWS V14.00,2013-06-17 21:05:00,
2013-06-17 17:10:00,82.4,60.8,29.77,SSE,166,3.0,11.0,48,0.00,,---,0.00,520.00,VWS V14.00,2013-06-17 21:10:00,
2013-06-17 17:15:00,82.4,60.8,29.78,WNW,283,1.0,1.0,48,0.00,,---,0.00,506.00,VWS V14.00,2013-06-17 21:15:00,
2013-06-17 17:20:00,82.2,61.7,29.78,SSE,148,6.0,7.0,50,0.00,,---,0.00,490.00,VWS V14.00,2013-06-17 21:20:00,
2013-06-17 17:25:00,82.4,61.3,29.78,WSW,252,6.0,6.0,49,0.00,,---,0.00,476.00,VWS V14.00,2013-06-17 21:25:00,
2013-06-17 17:30:00,82.4,61.9,29.78,South,179,8.0,9.0,50,0.00,,---,0.00,462.00,VWS V14.00,2013-06-17 21:30:00,
2013-06-17 17:35:00,82.4,59.6,29.79,SW,234,5.0,7.0,46,0.00,,---,0.00,473.00,VWS V14.00,2013-06-17 21:35:00,
2013-06-17 17:40:00,82.4,60.8,29.79,WNW,294,0.0,0.0,48,0.00,,---,0.00,510.00,VWS V14.00,2013-06-17 21:40:00,
2013-06-17 17:45:00,82.2,60.0,29.78,South,185,6.0,12.0,47,0.00,,---,0.00,443.00,VWS V14.00,2013-06-17 21:45:00,
2013-06-17 17:50:00,81.6,60.6,29.80,West,281,5.0,8.0,49,0.00,,---,0.00,32.00,VWS V14.00,2013-06-17 21:50:00,
2013-06-17 17:55:00,79.2,57.2,29.81,NW,323,6.0,11.0,47,0.00,,---,0.00,11.00,VWS V14.00,2013-06-17 21:55:00,
2013-06-17 18:00:00,76.1,56.1,29.82,NNW,338,6.0,7.0,50,0.00,,---,0.00,32.00,VWS V14.00,2013-06-17 22:00:00,
2013-06-17 18:05:00,74.2,54.9,29.81,NE,53,6.0,7.0,51,0.00,,---,0.00,76.00,VWS V14.00,2013-06-17 22:05:00,
2013-06-17 18:10:00,73.2,55.6,29.81,SSE,148,4.0,4.0,54,0.00,,---,0.00,155.00,VWS V14.00,2013-06-17 22:10:00,
2013-06-17 18:15:00,72.3,54.7,29.81,West,265,9.0,9.0,54,0.00,,---,0.00,183.00,VWS V14.00,2013-06-17 22:15:00,
2013-06-17 18:20:00,72.5,55.4,29.80,ESE,123,3.0,3.0,55,0.00,,---,0.00,355.00,VWS V14.00,2013-06-17 22:20:00,
2013-06-17 18:25:00,72.8,54.7,29.81,West,266,2.0,4.0,53,0.00,,---,0.00,355.00,VWS V14.00,2013-06-17 22:25:00,
2013-06-17 18:30:00,73.2,55.6,29.82,NNW,336,0.0,0.0,54,0.00,,---,0.00,322.00,VWS V14.00,2013-06-17 22:30:00,
2013-06-17 18:35:00,73.7,56.0,29.83,SSE,155,4.0,4.0,54,0.00,,---,0.00,322.00,VWS V14.00,2013-06-17 22:35:00,
2013-06-17 18:40:00,73.9,55.7,29.83,SSE,168,0.0,1.0,53,0.00,,---,0.00,86.00,VWS V14.00,2013-06-17 22:40:00,
2013-06-17 18:45:00,73.7,56.5,29.83,SSE,168,2.0,2.0,55,0.00,,---,0.00,60.00,VWS V14.00,2013-06-17 22:45:00,
2013-06-17 18:50:00,73.2,56.1,29.83,SSE,162,0.0,1.0,55,0.00,,---,0.00,44.00,VWS V14.00,2013-06-17 22:50:00,
2013-06-17 18:55:00,72.7,56.6,29.83,SSE,167,0.0,0.0,57,0.00,,---,0.00,42.00,VWS V14.00,2013-06-17 22:55:00,
2013-06-17 19:00:00,72.3,56.2,29.83,SSE,167,0.0,1.0,57,0.00,,---,0.00,42.00,VWS V14.00,2013-06-17 23:00:00,
2013-06-17 19:05:00,72.1,56.5,29.83,SSE,167,0.0,0.0,58,0.00,,---,0.00,49.00,VWS V14.00,2013-06-17 23:05:00,
2013-06-17 19:10:00,72.0,56.9,29.84,SSE,167,1.0,1.0,59,0.00,,---,0.00,81.00,VWS V14.00,2013-06-17 23:10:00,
2013-06-17 19:15:00,71.6,56.5,29.83,SSE,167,0.0,0.0,59,0.00,,---,0.00,148.00,VWS V14.00,2013-06-17 23:15:00,
2013-06-17 19:20:00,71.8,56.7,29.84,SE,136,3.0,3.0,59,0.00,,---,0.00,79.00,VWS V14.00,2013-06-17 23:20:00,
2013-06-17 19:25:00,71.8,56.7,29.84,SE,136,0.0,0.0,59,0.00,,---,0.00,84.00,VWS V14.00,2013-06-17 23:25:00,
2013-06-17 19:30:00,72.0,57.4,29.84,SE,136,1.0,1.0,60,0.00,,---,0.00,84.00,VWS V14.00,2013-06-17 23:30:00,
2013-06-17 19:35:00,72.0,57.8,29.84,SE,136,0.0,1.0,61,0.00,,---,0.00,60.00,VWS V14.00,2013-06-17 23:35:00,
2013-06-17 19:40:00,72.0,58.7,29.84,SE,136,0.0,0.0,63,0.00,,---,0.00,40.00,VWS V14.00,2013-06-17 23:40:00,
2013-06-17 19:45:00,71.6,57.9,29.84,SE,136,0.0,0.0,62,0.00,,---,0.00,32.00,VWS V14.00,2013-06-17 23:45:00,
2013-06-17 19:50:00,71.5,58.3,29.84,SE,136,0.0,0.0,63,0.00,,---,0.00,21.00,VWS V14.00,2013-06-17 23:50:00,
2013-06-17 19:55:00,71.1,58.3,29.84,SE,136,0.0,0.0,64,0.00,,---,0.00,18.00,VWS V14.00,2013-06-17 23:55:00,
2013-06-17 20:00:00,70.8,58.0,29.84,SE,136,0.0,0.0,64,0.00,,---,0.00,16.00,VWS V14.00,2013-06-18 00:00:00,
2013-06-17 20:05:00,70.4,58.1,29.85,SE,136,0.0,0.0,65,0.00,,---,0.00,14.00,VWS V14.00,2013-06-18 00:05:00,
2013-06-17 20:10:00,70.1,58.2,29.85,SE,136,0.0,0.0,66,0.00,,---,0.00,12.00,VWS V14.00,2013-06-18 00:10:00,
2013-06-17 20:15:00,69.8,58.4,29.84,SE,136,0.0,0.0,67,0.00,,---,0.00,11.00,VWS V14.00,2013-06-18 00:15:00,
2013-06-17 20:20:00,69.3,58.3,29.84,SE,136,0.0,0.0,68,0.00,,---,0.00,7.00,VWS V14.00,2013-06-18 00:20:00,
2013-06-17 20:25:00,68.9,58.7,29.84,SE,136,0.0,0.0,70,0.00,,---,0.00,5.00,VWS V14.00,2013-06-18 00:25:00,
2013-06-17 20:30:00,68.6,58.4,29.84,SE,136,0.0,0.0,70,0.00,,---,0.00,0.00,VWS V14.00,2013-06-18 00:30:00,
2013-06-17 20:35:00,68.1,58.3,29.85,SE,136,0.0,0.0,71,0.00,,---,0.00,0.00,VWS V14.00,2013-06-18 00:35:00,
2013-06-17 20:40:00,67.6,58.3,29.85,SE,136,0.0,0.0,72,0.00,,---,0.00,0.00,VWS V14.00,2013-06-18 00:40:00,
2013-06-17 20:45:00,67.3,58.0,29.85,SE,136,0.0,1.0,72,0.00,,---,0.00,0.00,VWS V14.00,2013-06-18 00:45:00,
2013-06-17 20:50:00,66.9,58.0,29.85,SE,136,0.0,0.0,73,0.00,,---,0.00,0.00,VWS V14.00,2013-06-18 00:50:00,
2013-06-17 20:55:00,66.6,57.7,29.85,SE,136,0.0,0.0,73,0.00,,---,0.00,0.00,VWS V14.00,2013-06-18 00:55:00,
2013-06-17 21:00:00,66.3,58.5,29.86,SE,136,0.0,0.0,76,0.00,,---,0.00,0.00,VWS V14.00,2013-06-18 01:00:00,
2013-06-17 21:05:00,65.8,58.0,29.86,SE,136,0.0,0.0,76,0.00,,---,0.00,0.00,VWS V14.00,2013-06-18 01:05:00,
2013-06-17 21:10:00,65.6,57.8,29.86,SE,136,0.0,0.0,76,0.00,,---,0.00,0.00,VWS V14.00,2013-06-18 01:10:00,
2013-06-17 21:15:00,65.3,57.5,29.86,SE,136,0.0,0.0,76,0.00,,---,0.00,0.00,VWS V14.00,2013-06-18 01:15:00,
2013-06-17 21:20:00,65.2,57.5,29.87,SE,136,0.0,1.0,76,0.00,,---,0.00,0.00,VWS V14.00,2013-06-18 01:20:00,
2013-06-17 21:25:00,65.0,57.6,29.86,SE,136,0.0,0.0,77,0.00,,---,0.00,0.00,VWS V14.00,2013-06-18 01:25:00,
2013-06-17 21:30:00,65.0,58.0,29.86,SE,136,0.0,0.0,78,0.00,,---,0.00,0.00,VWS V14.00,2013-06-18 01:30:00,
2013-06-17 21:35:00,64.8,57.8,29.86,SE,136,0.0,0.0,78,0.00,,---,0.00,0.00,VWS V14.00,2013-06-18 01:35:00,
2013-06-17 21:40:00,64.7,57.3,29.86,SE,136,0.0,1.0,77,0.00,,---,0.00,0.00,VWS V14.00,2013-06-18 01:40:00,
2013-06-17 21:45:00,64.5,57.5,29.86,SE,136,0.0,0.0,78,0.00,,---,0.00,0.00,VWS V14.00,2013-06-18 01:45:00,
2013-06-17 21:50:00,64.3,57.3,29.86,SE,136,0.0,0.0,78,0.00,,---,0.00,0.00,VWS V14.00,2013-06-18 01:50:00,
2013-06-17 21:55:00,64.3,57.7,29.87,SE,136,0.0,0.0,79,0.00,,---,0.00,0.00,VWS V14.00,2013-06-18 01:55:00,
2013-06-17 22:00:00,64.2,57.6,29.87,SE,136,0.0,0.0,79,0.00,,---,0.00,0.00,VWS V14.00,2013-06-18 02:00:00,
2013-06-17 22:05:00,64.0,57.7,29.87,SE,136,0.0,0.0,80,0.00,,---,0.00,0.00,VWS V14.00,2013-06-18 02:05:00,
2013-06-17 22:10:00,63.9,58.0,29.87,SE,136,0.0,0.0,81,0.00,,---,0.00,0.00,VWS V14.00,2013-06-18 02:10:00,
2013-06-17 22:15:00,63.5,57.6,29.87,SE,136,0.0,1.0,81,0.00,,---,0.00,0.00,VWS V14.00,2013-06-18 02:15:00,
2013-06-17 22:20:00,63.2,57.6,29.87,SE,136,0.0,1.0,82,0.00,,---,0.00,0.00,VWS V14.00,2013-06-18 02:20:00,
2013-06-17 22:25:00,63.1,57.5,29.88,SE,136,0.0,0.0,82,0.00,,---,0.00,0.00,VWS V14.00,2013-06-18 02:25:00,
2013-06-17 22:30:00,63.1,57.5,29.88,SE,136,0.0,0.0,82,0.00,,---,0.00,0.00,VWS V14.00,2013-06-18 02:30:00,
2013-06-17 22:35:00,63.1,57.5,29.88,SE,136,0.0,0.0,82,0.00,,---,0.00,0.00,VWS V14.00,2013-06-18 02:35:00,
2013-06-17 22:40:00,62.9,57.3,29.88,SE,136,0.0,1.0,82,0.00,,---,0.00,0.00,VWS V14.00,2013-06-18 02:40:00,
2013-06-17 22:45:00,62.6,57.4,29.87,SE,136,0.0,1.0,83,0.00,,---,0.00,0.00,VWS V14.00,2013-06-18 02:45:00,
2013-06-17 22:50:00,62.3,57.4,29.88,SE,136,0.0,0.0,84,0.00,,---,0.00,0.00,VWS V14.00,2013-06-18 02:50:00,
2013-06-17 22:55:00,62.1,57.2,29.88,SE,136,0.0,0.0,84,0.00,,---,0.00,0.00,VWS V14.00,2013-06-18 02:55:00,
2013-06-17 23:00:00,62.0,57.5,29.87,SE,136,0.0,0.0,85,0.00,,---,0.00,0.00,VWS V14.00,2013-06-18 03:00:00,
2013-06-17 23:05:00,62.0,57.8,29.87,SE,136,0.0,1.0,86,0.00,,---,0.00,0.00,VWS V14.00,2013-06-18 03:05:00,
2013-06-17 23:10:00,61.8,57.6,29.88,SE,136,1.0,1.0,86,0.00,,---,0.00,0.00,VWS V14.00,2013-06-18 03:10:00,
2013-06-17 23:15:00,62.0,58.1,29.87,SE,136,0.0,0.0,87,0.00,,---,0.00,0.00,VWS V14.00,2013-06-18 03:15:00,
2013-06-17 23:20:00,62.0,57.8,29.88,SE,136,0.0,0.0,86,0.00,,---,0.00,0.00,VWS V14.00,2013-06-18 03:20:00,
2013-06-17 23:25:00,62.0,58.1,29.88,SE,136,0.0,0.0,87,0.00,,---,0.00,0.00,VWS V14.00,2013-06-18 03:25:00,
2013-06-17 23:30:00,62.0,58.1,29.89,SE,136,0.0,0.0,87,0.00,,---,0.00,0.00,VWS V14.00,2013-06-18 03:30:00,
2013-06-17 23:35:00,61.8,57.6,29.88,SE,136,0.0,0.0,86,0.00,,---,0.00,0.00,VWS V14.00,2013-06-18 03:35:00,
2013-06-17 23:40:00,61.8,57.9,29.88,SE,136,0.0,0.0,87,0.00,,---,0.00,0.00,VWS V14.00,2013-06-18 03:40:00,
2013-06-17 23:45:00,61.8,57.9,29.88,SE,136,0.0,0.0,87,0.00,,---,0.00,0.00,VWS V14.00,2013-06-18 03:45:00,
2013-06-17 23:50:00,61.8,57.9,29.88,SE,136,0.0,0.0,87,0.00,,---,0.00,0.00,VWS V14.00,2013-06-18 03:50:00,
2013-06-17 23:55:00,61.6,57.7,29.88,SE,136,0.0,0.0,87,0.00,,---,0.00,0.00,VWS V14.00,2013-06-18 03:55:00,